Time,TemperatureF,DewpointF,PressureIn,WindDirection,WindDirectionDegrees,WindSpeedMPH,WindSpeedGustMPH,Humidity,HourlyPrecipIn,Conditions,Clouds,dailyrainin,SoftwareType,DateUTC
2013-06-20 09:55:00,77.5,70.1,29.93,NE,45,0.0,-999.0,78,-99.99,,,0.00,Acu-Link.com,2013-06-20 19:55:00,
2013-06-20 12:03:00,80.1,71.0,29.90,NNW,337,1.7,-999.0,74,-99.99,,,0.00,Acu-Link.com,2013-06-20 22:03:00,
2013-06-20 12:18:00,82.4,71.2,29.89,NNE,22,1.1,-999.0,69,-99.99,,,0.00,Acu-Link.com,2013-06-20 22:18:00,
2013-06-20 12:34:00,81.9,69.8,29.89,North,0,2.7,-999.0,67,-99.99,,,0.00,Acu-Link.com,2013-06-20 22:34:00,
2013-06-20 12:49:00,84.9,70.9,29.88,NE,45,2.7,-999.0,63,-99.99,,,0.00,Acu-Link.com,2013-06-20 22:49:00,
2013-06-20 13:04:00,85.1,71.5,29.87,NNE,22,2.2,-999.0,64,-99.99,,,0.00,Acu-Link.com,2013-06-20 23:04:00,
2013-06-20 13:20:00,84.4,71.3,29.88,NE,45,2.2,-999.0,65,-99.99,,,0.00,Acu-Link.com,2013-06-20 23:20:00,
2013-06-20 13:35:00,84.4,71.3,29.87,SW,225,3.2,-999.0,65,-99.99,,,0.00,Acu-Link.com,2013-06-20 23:35:00,
2013-06-20 13:50:00,82.0,69.5,29.87,NE,45,1.1,-999.0,66,-99.99,,,0.00,Acu-Link.com,2013-06-20 23:50:00,
2013-06-20 14:05:00,81.0,69.4,29.85,NE,45,1.7,-999.0,68,-99.99,,,0.00,Acu-Link.com,2013-06-21 00:05:00,
2013-06-20 14:21:00,83.7,70.7,29.87,East,90,1.7,-999.0,65,-99.99,,,0.00,Acu-Link.com,2013-06-21 00:21:00,
2013-06-20 14:36:00,82.6,70.1,29.87,North,0,1.7,-999.0,66,-99.99,,,0.00,Acu-Link.com,2013-06-21 00:36:00,
2013-06-20 14:51:00,84.0,70.0,29.85,NNE,22,4.2,-999.0,63,-99.99,,,0.00,Acu-Link.com,2013-06-21 00:51:00,
2013-06-20 15:06:00,84.2,69.7,29.84,North,0,2.2,-999.0,62,-99.99,,,0.00,Acu-Link.com,2013-06-21 01:06:00,
2013-06-20 15:21:00,83.5,69.6,29.87,NNW,337,1.7,-999.0,63,-99.99,,,0.00,Acu-Link.com,2013-06-21 01:21:00,
2013-06-20 15:36:00,84.4,68.5,29.83,NNE,22,1.7,-999.0,59,-99.99,,,0.00,Acu-Link.com,2013-06-21 01:36:00,
2013-06-20 15:52:00,83.1,69.2,29.83,NE,45,6.3,-999.0,63,-99.99,,,0.00,Acu-Link.com,2013-06-21 01:52:00,
2013-06-20 16:07:00,80.1,69.4,29.86,NNW,337,2.2,-999.0,70,-99.99,,,0.00,Acu-Link.com,2013-06-21 02:07:00,
2013-06-20 16:22:00,79.5,71.3,29.88,NNE,22,2.2,-999.0,76,-99.99,,,0.00,Acu-Link.com,2013-06-21 02:22:00,
2013-06-20 16:38:00,78.4,71.0,29.86,NE,45,2.2,-999.0,78,-99.99,,,0.00,Acu-Link.com,2013-06-21 02:38:00,
2013-06-20 16:53:00,77.7,69.5,29.86,NE,45,0.0,-999.0,76,-99.99,,,0.00,Acu-Link.com,2013-06-21 02:53:00,
2013-06-20 17:08:00,78.4,69.4,29.86,SSW,202,2.2,-999.0,74,-99.99,,,0.00,Acu-Link.com,2013-06-21 03:08:00,
2013-06-20 17:47:00,79.9,68.8,29.92,South,180,1.7,-999.0,69,-99.99,,,0.00,Acu-Link.com,2013-06-21 03:47:00,
2013-06-20 18:02:00,78.3,68.5,29.87,NW,315,0.0,-999.0,72,-99.99,,,0.00,Acu-Link.com,2013-06-21 04:02:00,
2013-06-20 18:17:00,78.4,68.6,29.87,NNE,22,1.1,-999.0,72,-99.99,,,0.00,Acu-Link.com,2013-06-21 04:17:00,
2013-06-20 18:32:00,78.8,68.2,29.86,NNE,22,2.2,-999.0,70,-99.99,,,0.00,Acu-Link.com,2013-06-21 04:32:00,
2013-06-20 18:48:00,77.5,67.3,29.86,NE,45,4.7,-999.0,71,-99.99,,,0.00,Acu-Link.com,2013-06-21 04:48:00,
2013-06-20 19:03:00,76.5,67.6,29.87,WSW,247,0.0,-999.0,74,-99.99,,,0.00,Acu-Link.com,2013-06-21 05:03:00,
2013-06-20 19:18:00,75.9,68.2,29.89,North,0,0.0,-999.0,77,-99.99,,,0.00,Acu-Link.com,2013-06-21 05:18:00,
2013-06-20 19:34:00,75.2,69.0,29.91,ENE,67,0.0,-999.0,81,-99.99,,,0.00,Acu-Link.com,2013-06-21 05:34:00,
2013-06-20 19:49:00,74.5,69.7,29.92,NNE,22,0.0,-999.0,85,-99.99,,,0.00,Acu-Link.com,2013-06-21 05:49:00,
2013-06-20 20:04:00,73.8,69.7,29.91,ENE,67,0.0,-999.0,87,-99.99,,,0.00,Acu-Link.com,2013-06-21 06:04:00,
2013-06-20 20:20:00,72.7,72.1,29.91,ENE,67,0.0,-999.0,98,-99.99,,,0.01,Acu-Link.com,2013-06-21 06:20:00,
2013-06-20 20:35:00,72.0,71.4,29.93,NE,45,0.0,-999.0,98,-99.99,,,0.01,Acu-Link.com,2013-06-21 06:35:00,
2013-06-20 20:50:00,71.4,70.8,29.94,WNW,292,1.1,-999.0,98,-99.99,,,0.01,Acu-Link.com,2013-06-21 06:50:00,
2013-06-20 21:06:00,71.1,70.5,29.95,NNE,22,0.0,-999.0,98,-99.99,,,0.01,Acu-Link.com,2013-06-21 07:06:00,
2013-06-20 21:21:00,70.7,70.1,29.93,North,0,0.0,-999.0,98,-99.99,,,0.02,Acu-Link.com,2013-06-21 07:21:00,
2013-06-20 21:36:00,70.5,69.9,29.94,North,0,2.2,-999.0,98,-99.99,,,0.02,Acu-Link.com,2013-06-21 07:36:00,
2013-06-20 21:52:00,70.5,69.9,29.94,NNE,22,0.0,-999.0,98,-99.99,,,0.03,Acu-Link.com,2013-06-21 07:52:00,
2013-06-20 22:07:00,70.5,69.9,29.94,NNE,22,0.0,-999.0,98,-99.99,,,0.04,Acu-Link.com,2013-06-21 08:07:00,
2013-06-20 22:23:00,70.5,69.9,29.94,NNE,22,0.0,-999.0,98,-99.99,,,0.04,Acu-Link.com,2013-06-21 08:23:00,
2013-06-20 22:38:00,70.3,69.7,29.96,North,0,0.0,-999.0,98,-99.99,,,0.06,Acu-Link.com,2013-06-21 08:38:00,
2013-06-20 22:53:00,70.3,69.7,29.95,NE,45,0.0,-999.0,98,-99.99,,,0.07,Acu-Link.com,2013-06-21 08:53:00,
2013-06-20 23:08:00,70.2,69.6,29.95,NE,45,2.2,-999.0,98,-99.99,,,0.08,Acu-Link.com,2013-06-21 09:08:00,